Year,Month,Day,Hour,Minute,Value (Times are PST for windspeed in km/hr)
2007,11,13,00,00,12.70
2007,11,13,00,01,11.40
2007,11,13,00,02,4.70
2007,11,13,00,03,8.10
2007,11,13,00,04,7.90
2007,11,13,00,05,8.40
2007,11,13,00,06,7.20
2007,11,13,00,07,13.30
2007,11,13,00,08,20.00
2007,11,13,00,09,11.30
2007,11,13,00,10,11.30
2007,11,13,00,11,11.30
2007,11,13,00,12,10.10
2007,11,13,00,13,8.50
2007,11,13,00,14,15.20
2007,11,13,00,15,6.50
2007,11,13,00,16,6.40
2007,11,13,00,17,6.40
2007,11,13,00,18,12.40
2007,11,13,00,19,4.90
2007,11,13,00,20,7.10
2007,11,13,00,21,2.90
2007,11,13,00,22,2.50
2007,11,13,00,23,4.70
2007,11,13,00,24,4.80
2007,11,13,00,25,2.40
2007,11,13,00,26,3.60
2007,11,13,00,27,1.70
2007,11,13,00,28,1.90
2007,11,13,00,29,2.10
2007,11,13,00,30,5.60
2007,11,13,00,31,2.10
2007,11,13,00,32,5.40
2007,11,13,00,33,3.50
2007,11,13,00,34,0.30
2007,11,13,00,35,1.50
2007,11,13,00,36,1.50
2007,11,13,00,37,1.90
2007,11,13,00,38,4.70
2007,11,13,00,39,3.90
2007,11,13,00,40,0.60
2007,11,13,00,41,2.90
2007,11,13,00,42,3.60
2007,11,13,00,43,0.80
2007,11,13,00,44,2.20
2007,11,13,00,45,2.20
2007,11,13,00,46,3.60
2007,11,13,00,47,1.50
2007,11,13,00,48,2.90
2007,11,13,00,49,3.70
2007,11,13,00,50,3.50
2007,11,13,00,51,6.80
2007,11,13,00,52,4.60
2007,11,13,00,53,3.10
2007,11,13,00,54,4.40
2007,11,13,00,55,11.40
2007,11,13,00,56,6.90
2007,11,13,00,57,5.40
2007,11,13,00,58,3.80
2007,11,13,00,59,7.80
2007,11,13,01,00,5.00
2007,11,13,01,01,11.10
2007,11,13,01,02,3.10
2007,11,13,01,03,8.20
2007,11,13,01,04,1.70
2007,11,13,01,05,5.80
2007,11,13,01,06,5.90
2007,11,13,01,07,8.30
2007,11,13,01,08,6.40
2007,11,13,01,09,9.20
2007,11,13,01,10,8.40
2007,11,13,01,11,5.40
2007,11,13,01,12,1.90
2007,11,13,01,13,2.10
2007,11,13,01,14,10.40
2007,11,13,01,15,5.10
2007,11,13,01,16,3.40
2007,11,13,01,17,4.20
2007,11,13,01,18,3.60
2007,11,13,01,19,5.00
2007,11,13,01,20,2.10
2007,11,13,01,21,0.40
2007,11,13,01,22,0.80
2007,11,13,01,23,1.40
2007,11,13,01,24,1.90
2007,11,13,01,25,2.80
2007,11,13,01,26,3.90
2007,11,13,01,27,1.40
2007,11,13,01,28,6.50
2007,11,13,01,29,3.10
2007,11,13,01,30,2.30
2007,11,13,01,31,1.40
2007,11,13,01,32,1.40
2007,11,13,01,33,4.70
2007,11,13,01,34,1.90
2007,11,13,01,35,2.00
2007,11,13,01,36,3.40
2007,11,13,01,37,4.20
2007,11,13,01,38,3.30
2007,11,13,01,39,2.60
2007,11,13,01,40,2.90
2007,11,13,01,41,2.00
2007,11,13,01,42,2.00
2007,11,13,01,43,1.00
2007,11,13,01,44,0.50
2007,11,13,01,45,2.20
2007,11,13,01,46,0.20
2007,11,13,01,47,0.60
2007,11,13,01,48,3.60
2007,11,13,01,49,2.50
2007,11,13,01,50,1.40
2007,11,13,01,51,0.60
2007,11,13,01,52,3.50
2007,11,13,01,53,1.20
2007,11,13,01,54,0.00
2007,11,13,01,55,1.60
2007,11,13,01,56,1.00
2007,11,13,01,57,1.30
2007,11,13,01,58,2.90
2007,11,13,01,59,0.00
2007,11,13,02,00,0.00
2007,11,13,02,01,0.20
2007,11,13,02,02,0.40
2007,11,13,02,03,4.00
2007,11,13,02,04,4.40
2007,11,13,02,05,3.10
2007,11,13,02,06,4.70
2007,11,13,02,07,3.90
2007,11,13,02,08,4.60
2007,11,13,02,09,2.00
2007,11,13,02,10,0.10
2007,11,13,02,11,0.00
2007,11,13,02,12,0.90
2007,11,13,02,13,0.50
2007,11,13,02,14,2.50
2007,11,13,02,15,1.00
2007,11,13,02,16,0.60
2007,11,13,02,17,0.60
2007,11,13,02,18,0.40
2007,11,13,02,19,0.00
2007,11,13,02,20,0.10
2007,11,13,02,21,0.00
2007,11,13,02,22,0.90
2007,11,13,02,23,1.60
2007,11,13,02,24,0.40
2007,11,13,02,25,0.30
2007,11,13,02,26,1.60
2007,11,13,02,27,0.60
2007,11,13,02,28,0.00
2007,11,13,02,29,0.00
2007,11,13,02,30,0.40
2007,11,13,02,31,1.60
2007,11,13,02,32,2.80
2007,11,13,02,33,1.20
2007,11,13,02,34,0.00
2007,11,13,02,35,0.50
2007,11,13,02,36,0.90
2007,11,13,02,37,0.00
2007,11,13,02,38,0.00
2007,11,13,02,39,0.10
2007,11,13,02,40,0.00
2007,11,13,02,41,0.00
2007,11,13,02,42,0.00
2007,11,13,02,43,0.10
2007,11,13,02,44,1.70
2007,11,13,02,45,0.60
2007,11,13,02,46,3.10
2007,11,13,02,47,1.20
2007,11,13,02,48,1.30
2007,11,13,02,49,1.40
2007,11,13,02,50,1.10
2007,11,13,02,51,0.70
2007,11,13,02,52,0.90
2007,11,13,02,53,7.30
2007,11,13,02,54,6.30
2007,11,13,02,55,4.70
2007,11,13,02,56,2.10
2007,11,13,02,57,1.80
2007,11,13,02,58,0.00
2007,11,13,02,59,0.10
2007,11,13,03,00,0.90
2007,11,13,03,01,5.50
2007,11,13,03,02,5.00
2007,11,13,03,03,7.90
2007,11,13,03,04,1.50
2007,11,13,03,05,1.20
2007,11,13,03,06,6.30
2007,11,13,03,07,5.40
2007,11,13,03,08,0.90
2007,11,13,03,09,6.40
2007,11,13,03,10,4.80
2007,11,13,03,11,4.80
2007,11,13,03,12,3.40
2007,11,13,03,13,2.40
2007,11,13,03,14,1.10
2007,11,13,03,15,5.60
2007,11,13,03,16,2.50
2007,11,13,03,17,3.50
2007,11,13,03,18,4.90
2007,11,13,03,19,1.50
2007,11,13,03,20,4.40
2007,11,13,03,21,1.40
2007,11,13,03,22,1.70
2007,11,13,03,23,1.90
2007,11,13,03,24,2.60
2007,11,13,03,25,0.00
2007,11,13,03,26,0.90
2007,11,13,03,27,0.10
2007,11,13,03,28,0.00
2007,11,13,03,29,0.00
2007,11,13,03,30,2.40
2007,11,13,03,31,1.50
2007,11,13,03,32,1.70
2007,11,13,03,33,1.90
2007,11,13,03,34,2.80
2007,11,13,03,35,2.30
2007,11,13,03,36,1.20
2007,11,13,03,37,1.40
2007,11,13,03,38,3.50
2007,11,13,03,39,0.90
2007,11,13,03,40,1.40
2007,11,13,03,41,2.80
2007,11,13,03,42,2.70
2007,11,13,03,43,1.60
2007,11,13,03,44,2.80
2007,11,13,03,45,1.70
2007,11,13,03,46,1.90
2007,11,13,03,47,2.80
2007,11,13,03,48,2.20
2007,11,13,03,49,3.10
2007,11,13,03,50,3.10
2007,11,13,03,51,0.90
2007,11,13,03,52,2.90
2007,11,13,03,53,0.00
2007,11,13,03,54,4.40
2007,11,13,03,55,0.70
2007,11,13,03,56,0.50
2007,11,13,03,57,6.00
2007,11,13,03,58,3.50
2007,11,13,03,59,4.60
2007,11,13,04,00,0.30
2007,11,13,04,01,3.40
2007,11,13,04,02,2.00
2007,11,13,04,03,0.90
2007,11,13,04,04,2.90
2007,11,13,04,05,4.10
2007,11,13,04,06,8.60
2007,11,13,04,07,4.90
2007,11,13,04,08,1.50
2007,11,13,04,09,2.90
2007,11,13,04,10,1.40
2007,11,13,04,11,0.10
2007,11,13,04,12,3.50
2007,11,13,04,13,1.90
2007,11,13,04,14,4.70
2007,11,13,04,15,5.50
2007,11,13,04,16,2.80
2007,11,13,04,17,0.10
2007,11,13,04,18,0.20
2007,11,13,04,19,6.10
2007,11,13,04,20,0.50
2007,11,13,04,21,0.20
2007,11,13,04,22,2.10
2007,11,13,04,23,1.60
2007,11,13,04,24,2.50
2007,11,13,04,25,7.70
2007,11,13,04,26,1.20
2007,11,13,04,27,2.50
2007,11,13,04,28,0.00
2007,11,13,04,29,2.50
2007,11,13,04,30,0.10
2007,11,13,04,31,1.50
2007,11,13,04,32,1.60
2007,11,13,04,33,1.20
2007,11,13,04,34,3.10
2007,11,13,04,35,0.00
2007,11,13,04,36,1.50
2007,11,13,04,37,0.00
2007,11,13,04,38,1.00
2007,11,13,04,39,0.20
2007,11,13,04,40,0.00
2007,11,13,04,41,0.00
2007,11,13,04,42,0.00
2007,11,13,04,43,0.00
2007,11,13,04,44,0.00
2007,11,13,04,45,0.40
2007,11,13,04,46,1.10
2007,11,13,04,47,0.10
2007,11,13,04,48,2.20
2007,11,13,04,49,0.30
2007,11,13,04,50,0.00
2007,11,13,04,51,0.10
2007,11,13,04,52,0.20
2007,11,13,04,53,0.20
2007,11,13,04,54,1.80
2007,11,13,04,55,1.50
2007,11,13,04,56,0.00
2007,11,13,04,57,0.70
2007,11,13,04,58,0.10
2007,11,13,04,59,1.30
2007,11,13,05,00,1.60
2007,11,13,05,01,0.00
2007,11,13,05,02,1.00
2007,11,13,05,03,0.80
2007,11,13,05,04,0.00
2007,11,13,05,05,0.20
2007,11,13,05,06,0.20
2007,11,13,05,07,0.10
2007,11,13,05,08,0.00
2007,11,13,05,09,0.00
2007,11,13,05,10,0.30
2007,11,13,05,11,0.20
2007,11,13,05,12,0.00
2007,11,13,05,13,0.00
2007,11,13,05,14,0.00
2007,11,13,05,15,0.00
2007,11,13,05,16,0.00
2007,11,13,05,17,0.10
2007,11,13,05,18,0.40
2007,11,13,05,19,0.00
2007,11,13,05,20,1.70
2007,11,13,05,21,1.00
2007,11,13,05,22,2.20
2007,11,13,05,23,0.60
2007,11,13,05,24,1.40
2007,11,13,05,25,0.30
2007,11,13,05,26,0.00
2007,11,13,05,27,0.00
2007,11,13,05,28,2.00
2007,11,13,05,29,2.60
2007,11,13,05,30,0.70
2007,11,13,05,31,2.80
2007,11,13,05,32,1.10
2007,11,13,05,33,2.90
2007,11,13,05,34,2.40
2007,11,13,05,35,1.20
2007,11,13,05,36,2.50
2007,11,13,05,37,0.10
2007,11,13,05,38,1.90
2007,11,13,05,39,2.20
2007,11,13,05,40,2.10
2007,11,13,05,41,0.90
2007,11,13,05,42,0.30
2007,11,13,05,43,0.80
2007,11,13,05,44,0.00
2007,11,13,05,45,0.90
2007,11,13,05,46,2.40
2007,11,13,05,47,2.10
2007,11,13,05,48,1.80
2007,11,13,05,49,2.60
2007,11,13,05,50,0.40
2007,11,13,05,51,0.90
2007,11,13,05,52,1.30
2007,11,13,05,53,3.20
2007,11,13,05,54,3.00
2007,11,13,05,55,2.50
2007,11,13,05,56,2.60
2007,11,13,05,57,3.40
2007,11,13,05,58,2.60
2007,11,13,05,59,2.00
2007,11,13,06,00,2.40
2007,11,13,06,01,4.70
2007,11,13,06,02,5.80
2007,11,13,06,03,3.40
2007,11,13,06,04,0.30
2007,11,13,06,05,5.00
2007,11,13,06,06,3.70
2007,11,13,06,07,1.60
2007,11,13,06,08,4.40
2007,11,13,06,09,2.80
2007,11,13,06,10,1.10
2007,11,13,06,11,3.50
2007,11,13,06,12,3.40
2007,11,13,06,13,2.00
2007,11,13,06,14,2.30
2007,11,13,06,15,2.60
2007,11,13,06,16,3.30
2007,11,13,06,17,3.70
2007,11,13,06,18,2.60
2007,11,13,06,19,1.20
2007,11,13,06,20,1.70
2007,11,13,06,21,0.40
2007,11,13,06,22,1.80
2007,11,13,06,23,2.00
2007,11,13,06,24,3.10
2007,11,13,06,25,2.20
2007,11,13,06,26,3.20
2007,11,13,06,27,3.40
2007,11,13,06,28,2.60
2007,11,13,06,29,1.20
2007,11,13,06,30,3.00
2007,11,13,06,31,1.60
2007,11,13,06,32,1.30
2007,11,13,06,33,2.30
2007,11,13,06,34,0.30
2007,11,13,06,35,1.30
2007,11,13,06,36,0.30
2007,11,13,06,37,1.00
2007,11,13,06,38,0.80
2007,11,13,06,39,4.20
2007,11,13,06,40,1.80
2007,11,13,06,41,0.10
2007,11,13,06,42,0.70
2007,11,13,06,43,2.90
2007,11,13,06,44,0.60
2007,11,13,06,45,0.10
2007,11,13,06,46,0.70
2007,11,13,06,47,0.00
2007,11,13,06,48,2.00
2007,11,13,06,49,0.00
2007,11,13,06,50,0.80
2007,11,13,06,51,0.00
2007,11,13,06,52,1.30
2007,11,13,06,53,1.30
2007,11,13,06,54,0.80
2007,11,13,06,55,0.00
2007,11,13,06,56,0.40
2007,11,13,06,57,2.40
2007,11,13,06,58,0.10
2007,11,13,06,59,0.40
2007,11,13,07,00,1.60
2007,11,13,07,01,0.70
2007,11,13,07,02,0.70
2007,11,13,07,03,1.50
2007,11,13,07,04,0.90
2007,11,13,07,05,0.00
2007,11,13,07,06,2.00
2007,11,13,07,07,0.40
2007,11,13,07,08,2.00
2007,11,13,07,09,0.40
2007,11,13,07,10,1.60
2007,11,13,07,11,2.50
2007,11,13,07,12,0.20
2007,11,13,07,13,2.70
2007,11,13,07,14,0.20
2007,11,13,07,15,0.80
2007,11,13,07,16,0.20
2007,11,13,07,17,3.00
2007,11,13,07,18,1.50
2007,11,13,07,19,0.50
2007,11,13,07,20,2.00
2007,11,13,07,21,0.40
2007,11,13,07,22,0.00
2007,11,13,07,23,2.20
2007,11,13,07,24,0.20
2007,11,13,07,25,0.60
2007,11,13,07,26,0.00
2007,11,13,07,27,0.40
2007,11,13,07,28,2.20
2007,11,13,07,29,0.00
2007,11,13,07,30,1.40
2007,11,13,07,31,0.90
2007,11,13,07,32,0.00
2007,11,13,07,33,0.00
2007,11,13,07,34,0.00
2007,11,13,07,35,0.00
2007,11,13,07,36,0.00
2007,11,13,07,37,0.00
2007,11,13,07,38,1.00
2007,11,13,07,39,0.00
2007,11,13,07,40,0.20
2007,11,13,07,41,0.60
2007,11,13,07,42,0.10
2007,11,13,07,43,0.00
2007,11,13,07,44,0.00
2007,11,13,07,45,0.70
2007,11,13,07,46,1.40
2007,11,13,07,47,0.50
2007,11,13,07,48,2.00
2007,11,13,07,49,0.40
2007,11,13,07,50,0.00
2007,11,13,07,51,0.00
2007,11,13,07,52,0.00
2007,11,13,07,53,0.70
2007,11,13,07,54,3.40
2007,11,13,07,55,0.20
2007,11,13,07,56,0.00
2007,11,13,07,57,1.80
2007,11,13,07,58,2.40
2007,11,13,07,59,0.10
2007,11,13,08,00,0.30
2007,11,13,08,01,0.00
2007,11,13,08,02,0.00
2007,11,13,08,03,0.00
2007,11,13,08,04,0.00
2007,11,13,08,05,0.00
2007,11,13,08,06,0.10
2007,11,13,08,07,2.70
2007,11,13,08,08,0.60
2007,11,13,08,09,0.00
2007,11,13,08,10,4.00
2007,11,13,08,11,2.90
2007,11,13,08,12,0.30
2007,11,13,08,13,3.60
2007,11,13,08,14,3.20
2007,11,13,08,15,1.80
2007,11,13,08,16,5.10
2007,11,13,08,17,5.60
2007,11,13,08,18,4.10
2007,11,13,08,19,3.30
2007,11,13,08,20,1.30
2007,11,13,08,21,1.70
2007,11,13,08,22,1.60
2007,11,13,08,23,1.90
2007,11,13,08,24,4.30
2007,11,13,08,25,4.80
2007,11,13,08,26,3.70
2007,11,13,08,27,2.90
2007,11,13,08,28,5.40
2007,11,13,08,29,2.10
2007,11,13,08,30,0.10
2007,11,13,08,31,0.00
2007,11,13,08,32,2.90
2007,11,13,08,33,3.70
2007,11,13,08,34,2.10
2007,11,13,08,35,0.20
2007,11,13,08,36,1.50
2007,11,13,08,37,1.70
2007,11,13,08,38,2.50
2007,11,13,08,39,0.10
2007,11,13,08,40,2.20
2007,11,13,08,41,2.10
2007,11,13,08,42,2.90
2007,11,13,08,43,1.90
2007,11,13,08,44,2.50
2007,11,13,08,45,6.90
2007,11,13,08,46,4.50
2007,11,13,08,47,5.60
2007,11,13,08,48,1.70
2007,11,13,08,49,6.10
2007,11,13,08,50,9.80
2007,11,13,08,51,4.60
2007,11,13,08,52,1.60
2007,11,13,08,53,1.60
2007,11,13,08,54,4.80
2007,11,13,08,55,5.30
2007,11,13,08,56,5.50
2007,11,13,08,57,2.80
2007,11,13,08,58,1.00
2007,11,13,08,59,7.20
2007,11,13,09,00,3.60
2007,11,13,09,01,6.00
2007,11,13,09,02,2.20
2007,11,13,09,03,4.30
2007,11,13,09,04,7.40
2007,11,13,09,05,6.80
2007,11,13,09,06,2.70
2007,11,13,09,07,5.70
2007,11,13,09,08,2.20
2007,11,13,09,09,1.40
2007,11,13,09,10,1.70
2007,11,13,09,11,1.50
2007,11,13,09,12,5.80
2007,11,13,09,13,3.30
2007,11,13,09,14,3.10
2007,11,13,09,15,2.90
2007,11,13,09,16,4.70
2007,11,13,09,17,5.90
2007,11,13,09,18,7.00
2007,11,13,09,19,7.80
2007,11,13,09,20,5.50
2007,11,13,09,21,0.70
2007,11,13,09,22,12.00
2007,11,13,09,23,11.40
2007,11,13,09,24,10.70
2007,11,13,09,25,7.70
2007,11,13,09,26,6.40
2007,11,13,09,27,7.50
2007,11,13,09,28,3.90
2007,11,13,09,29,7.50
2007,11,13,09,30,5.30
2007,11,13,09,31,3.50
2007,11,13,09,32,3.20
2007,11,13,09,33,7.90
2007,11,13,09,34,5.50
2007,11,13,09,35,7.20
2007,11,13,09,36,3.60
2007,11,13,09,37,2.10
2007,11,13,09,38,1.10
2007,11,13,09,39,4.40
2007,11,13,09,40,2.20
2007,11,13,09,41,3.10
2007,11,13,09,42,2.00
2007,11,13,09,43,3.20
2007,11,13,09,44,1.90
2007,11,13,09,45,0.10
2007,11,13,09,46,5.70
2007,11,13,09,47,2.50
2007,11,13,09,48,5.70
2007,11,13,09,49,5.80
2007,11,13,09,50,7.20
2007,11,13,09,51,5.10
2007,11,13,09,52,0.90
2007,11,13,09,53,3.20
2007,11,13,09,54,1.90
2007,11,13,09,55,2.70
2007,11,13,09,56,4.80
2007,11,13,09,57,7.10
2007,11,13,09,58,3.30
2007,11,13,09,59,5.00
2007,11,13,10,00,4.10
2007,11,13,10,01,11.10
2007,11,13,10,02,4.40
2007,11,13,10,03,4.80
2007,11,13,10,04,4.90
2007,11,13,10,05,8.90
2007,11,13,10,06,2.90
2007,11,13,10,07,0.70
2007,11,13,10,08,3.50
2007,11,13,10,09,6.90
2007,11,13,10,10,6.90
2007,11,13,10,11,11.40
2007,11,13,10,12,14.90
2007,11,13,10,13,12.90
2007,11,13,10,14,13.80
2007,11,13,10,15,7.20
2007,11,13,10,16,4.10
2007,11,13,10,17,4.20
2007,11,13,10,18,3.00
2007,11,13,10,19,5.30
2007,11,13,10,20,7.40
2007,11,13,10,21,7.10
2007,11,13,10,22,8.90
2007,11,13,10,23,6.70
2007,11,13,10,24,11.30
2007,11,13,10,25,11.30
2007,11,13,10,26,3.60
2007,11,13,10,27,6.20
2007,11,13,10,28,3.40
2007,11,13,10,29,3.60
2007,11,13,10,30,7.20
2007,11,13,10,31,3.90
2007,11,13,10,32,4.00
2007,11,13,10,33,8.20
2007,11,13,10,34,10.00
2007,11,13,10,35,6.20
2007,11,13,10,36,4.50
2007,11,13,10,37,11.60
2007,11,13,10,38,6.00
2007,11,13,10,39,5.50
2007,11,13,10,40,4.20
2007,11,13,10,41,5.20
2007,11,13,10,42,4.40
2007,11,13,10,43,5.30
2007,11,13,10,44,7.40
2007,11,13,10,45,6.10
2007,11,13,10,46,9.30
2007,11,13,10,47,3.00
2007,11,13,10,48,6.40
2007,11,13,10,49,7.20
2007,11,13,10,50,6.10
2007,11,13,10,51,5.80
2007,11,13,10,52,5.30
2007,11,13,10,53,7.60
2007,11,13,10,54,4.00
2007,11,13,10,55,3.20
2007,11,13,10,56,5.20
2007,11,13,10,57,5.60
2007,11,13,10,58,6.00
2007,11,13,10,59,3.40
2007,11,13,11,00,3.90
2007,11,13,11,01,2.50
2007,11,13,11,02,2.00
2007,11,13,11,03,6.20
2007,11,13,11,04,5.30
2007,11,13,11,05,8.00
2007,11,13,11,06,5.30
2007,11,13,11,07,2.80
2007,11,13,11,08,0.70
2007,11,13,11,09,0.60
2007,11,13,11,10,2.80
2007,11,13,11,11,1.50
2007,11,13,11,12,4.40
2007,11,13,11,13,5.20
2007,11,13,11,14,2.50
2007,11,13,11,15,1.40
2007,11,13,11,16,1.50
2007,11,13,11,17,4.30
2007,11,13,11,18,3.40
2007,11,13,11,19,5.20
2007,11,13,11,20,6.00
2007,11,13,11,21,8.10
2007,11,13,11,22,4.80
2007,11,13,11,23,4.70
2007,11,13,11,24,2.30
2007,11,13,11,25,4.00
2007,11,13,11,26,5.30
2007,11,13,11,27,4.00
2007,11,13,11,28,5.30
2007,11,13,11,29,5.20
2007,11,13,11,30,1.90
2007,11,13,11,31,5.00
2007,11,13,11,32,4.30
2007,11,13,11,33,7.00
2007,11,13,11,34,4.90
2007,11,13,11,35,2.50
2007,11,13,11,36,4.60
2007,11,13,11,37,3.20
2007,11,13,11,38,4.20
2007,11,13,11,39,4.50
2007,11,13,11,40,2.50
2007,11,13,11,41,4.00
2007,11,13,11,42,1.10
2007,11,13,11,43,1.70
2007,11,13,11,44,0.60
2007,11,13,11,45,8.70
2007,11,13,11,46,7.80
2007,11,13,11,47,4.00
2007,11,13,11,48,5.00
2007,11,13,11,49,6.60
2007,11,13,11,50,5.40
2007,11,13,11,51,6.10
2007,11,13,11,52,3.10
2007,11,13,11,53,6.00
2007,11,13,11,54,4.60
2007,11,13,11,55,10.00
2007,11,13,11,56,5.10
2007,11,13,11,57,7.20
2007,11,13,11,58,5.80
2007,11,13,11,59,5.70
2007,11,13,12,00,1.80
2007,11,13,12,01,1.00
2007,11,13,12,02,6.60
2007,11,13,12,03,7.90
2007,11,13,12,04,9.00
2007,11,13,12,05,8.60
2007,11,13,12,06,3.10
2007,11,13,12,07,1.90
2007,11,13,12,08,3.10
2007,11,13,12,09,6.50
2007,11,13,12,10,4.80
2007,11,13,12,11,6.80
2007,11,13,12,12,4.10
2007,11,13,12,13,8.00
2007,11,13,12,14,4.80
2007,11,13,12,15,3.80
2007,11,13,12,16,3.40
2007,11,13,12,17,4.80
2007,11,13,12,18,0.30
2007,11,13,12,19,3.20
2007,11,13,12,20,3.10
2007,11,13,12,21,4.90
2007,11,13,12,22,4.50
2007,11,13,12,23,6.00
2007,11,13,12,24,3.60
2007,11,13,12,25,4.10
2007,11,13,12,26,6.90
2007,11,13,12,27,5.60
2007,11,13,12,28,8.50
2007,11,13,12,29,4.70
2007,11,13,12,30,1.40
2007,11,13,12,31,2.50
2007,11,13,12,32,8.60
2007,11,13,12,33,11.80
2007,11,13,12,34,4.00
2007,11,13,12,35,5.80
2007,11,13,12,36,8.00
2007,11,13,12,37,4.40
2007,11,13,12,38,3.80
2007,11,13,12,39,2.80
2007,11,13,12,40,4.80
2007,11,13,12,41,8.60
2007,11,13,12,42,17.10
2007,11,13,12,43,10.40
2007,11,13,12,44,6.30
2007,11,13,12,45,5.10
2007,11,13,12,46,3.40
2007,11,13,12,47,7.20
2007,11,13,12,48,5.70
2007,11,13,12,49,0.80
2007,11,13,12,50,0.10
2007,11,13,12,51,3.70
2007,11,13,12,52,9.50
2007,11,13,12,53,4.80
2007,11,13,12,54,5.50
2007,11,13,12,55,2.00
2007,11,13,12,56,1.10
2007,11,13,12,57,3.80
2007,11,13,12,58,4.60
2007,11,13,12,59,3.40
2007,11,13,13,00,2.10
2007,11,13,13,01,2.60
2007,11,13,13,02,3.00
2007,11,13,13,03,8.30
2007,11,13,13,04,9.60
2007,11,13,13,05,9.60
2007,11,13,13,06,9.60
2007,11,13,13,07,8.70
2007,11,13,13,08,5.10
2007,11,13,13,09,11.50
2007,11,13,13,10,9.20
2007,11,13,13,11,5.20
2007,11,13,13,12,5.70
2007,11,13,13,13,5.90
2007,11,13,13,14,8.30
2007,11,13,13,15,4.50
2007,11,13,13,16,4.80
2007,11,13,13,17,8.00
2007,11,13,13,18,9.20
2007,11,13,13,19,7.00
2007,11,13,13,20,10.90
2007,11,13,13,21,8.20
2007,11,13,13,22,7.60
2007,11,13,13,23,6.00
2007,11,13,13,24,4.00
2007,11,13,13,25,1.60
2007,11,13,13,26,1.70
2007,11,13,13,27,3.50
2007,11,13,13,28,4.00
2007,11,13,13,29,5.50
2007,11,13,13,30,4.80
2007,11,13,13,31,4.80
2007,11,13,13,32,3.10
2007,11,13,13,33,6.40
2007,11,13,13,34,6.10
2007,11,13,13,35,2.40
2007,11,13,13,36,2.10
2007,11,13,13,37,2.30
2007,11,13,13,38,4.60
2007,11,13,13,39,6.90
2007,11,13,13,40,4.80
2007,11,13,13,41,4.00
2007,11,13,13,42,11.20
2007,11,13,13,43,3.90
2007,11,13,13,44,3.00
2007,11,13,13,45,3.60
2007,11,13,13,46,1.70
2007,11,13,13,47,6.30
2007,11,13,13,48,9.90
2007,11,13,13,49,6.30
2007,11,13,13,50,5.70
2007,11,13,13,51,8.90
2007,11,13,13,52,2.00
2007,11,13,13,53,3.10
2007,11,13,13,54,11.00
2007,11,13,13,55,4.20
2007,11,13,13,56,7.80
2007,11,13,13,57,6.20
2007,11,13,13,58,9.20
2007,11,13,13,59,9.60
2007,11,13,14,00,3.70
2007,11,13,14,01,3.40
2007,11,13,14,02,5.50
2007,11,13,14,03,4.80
2007,11,13,14,04,4.30
2007,11,13,14,05,5.70
2007,11,13,14,06,5.00
2007,11,13,14,07,2.40
2007,11,13,14,08,2.00
2007,11,13,14,09,1.30
2007,11,13,14,10,7.40
2007,11,13,14,11,2.50
2007,11,13,14,12,1.90
2007,11,13,14,13,3.50
2007,11,13,14,14,4.20
2007,11,13,14,15,5.20
2007,11,13,14,16,8.60
2007,11,13,14,17,6.70
2007,11,13,14,18,6.40
2007,11,13,14,19,6.30
2007,11,13,14,20,3.10
2007,11,13,14,21,6.80
2007,11,13,14,22,0.70
2007,11,13,14,23,8.90
2007,11,13,14,24,5.50
2007,11,13,14,25,0.00
2007,11,13,14,26,0.10
2007,11,13,14,27,0.20
2007,11,13,14,28,5.20
2007,11,13,14,29,4.90
2007,11,13,14,30,1.90
2007,11,13,14,31,4.60
2007,11,13,14,32,2.00
2007,11,13,14,33,4.10
2007,11,13,14,34,4.40
2007,11,13,14,35,6.40
2007,11,13,14,36,1.70
2007,11,13,14,37,1.80
2007,11,13,14,38,2.60
2007,11,13,14,39,4.60
2007,11,13,14,40,5.30
2007,11,13,14,41,5.10
2007,11,13,14,42,8.70
2007,11,13,14,43,7.50
2007,11,13,14,44,7.80
2007,11,13,14,45,6.40
2007,11,13,14,46,7.80
2007,11,13,14,47,3.20
2007,11,13,14,48,3.30
2007,11,13,14,49,4.50
2007,11,13,14,50,3.10
2007,11,13,14,51,1.00
2007,11,13,14,52,4.20
2007,11,13,14,53,1.80
2007,11,13,14,54,1.40
2007,11,13,14,55,3.00
2007,11,13,14,56,6.70
2007,11,13,14,57,4.70
2007,11,13,14,58,6.60
2007,11,13,14,59,7.30
2007,11,13,15,00,6.20
2007,11,13,15,01,4.80
2007,11,13,15,02,6.20
2007,11,13,15,03,5.80
2007,11,13,15,04,3.90
2007,11,13,15,05,1.30
2007,11,13,15,06,3.40
2007,11,13,15,07,5.70
2007,11,13,15,08,4.10
2007,11,13,15,09,3.80
2007,11,13,15,10,3.50
2007,11,13,15,11,3.70
2007,11,13,15,12,3.90
2007,11,13,15,13,5.10
2007,11,13,15,14,6.00
2007,11,13,15,15,4.10
2007,11,13,15,16,6.20
2007,11,13,15,17,7.20
2007,11,13,15,18,2.60
2007,11,13,15,19,6.30
2007,11,13,15,20,4.80
2007,11,13,15,21,4.70
2007,11,13,15,22,6.50
2007,11,13,15,23,4.10
2007,11,13,15,24,6.00
2007,11,13,15,25,6.20
2007,11,13,15,26,4.70
2007,11,13,15,27,7.80
2007,11,13,15,28,6.50
2007,11,13,15,29,6.70
2007,11,13,15,30,6.10
2007,11,13,15,31,4.40
2007,11,13,15,32,1.90
2007,11,13,15,33,3.20
2007,11,13,15,34,4.30
2007,11,13,15,35,2.00
2007,11,13,15,36,1.40
2007,11,13,15,37,4.30
2007,11,13,15,38,4.60
2007,11,13,15,39,4.30
2007,11,13,15,40,4.20
2007,11,13,15,41,1.30
2007,11,13,15,42,2.60
2007,11,13,15,43,2.00
2007,11,13,15,44,1.50
2007,11,13,15,45,3.00
2007,11,13,15,46,1.40
2007,11,13,15,47,1.90
2007,11,13,15,48,7.20
2007,11,13,15,49,3.80
2007,11,13,15,50,2.30
2007,11,13,15,51,1.00
2007,11,13,15,52,3.60
2007,11,13,15,53,2.70
2007,11,13,15,54,2.80
2007,11,13,15,55,3.10
2007,11,13,15,56,1.50
2007,11,13,15,57,6.60
2007,11,13,15,58,3.70
2007,11,13,15,59,2.10
2007,11,13,16,00,1.90
2007,11,13,16,01,3.40
2007,11,13,16,02,5.50
2007,11,13,16,03,1.50
2007,11,13,16,04,3.20
2007,11,13,16,05,4.30
2007,11,13,16,06,2.80
2007,11,13,16,07,0.90
2007,11,13,16,08,1.60
2007,11,13,16,09,1.20
2007,11,13,16,10,0.10
2007,11,13,16,11,1.90
2007,11,13,16,12,2.00
2007,11,13,16,13,0.50
2007,11,13,16,14,2.00
2007,11,13,16,15,2.50
2007,11,13,16,16,5.70
2007,11,13,16,17,3.90
2007,11,13,16,18,1.10
2007,11,13,16,19,2.10
2007,11,13,16,20,3.20
2007,11,13,16,21,1.70
2007,11,13,16,22,1.40
2007,11,13,16,23,3.40
2007,11,13,16,24,2.10
2007,11,13,16,25,1.70
2007,11,13,16,26,5.40
2007,11,13,16,27,2.50
2007,11,13,16,28,0.40
2007,11,13,16,29,0.00
2007,11,13,16,30,2.80
2007,11,13,16,31,0.00
2007,11,13,16,32,1.00
2007,11,13,16,33,1.20
2007,11,13,16,34,1.00
2007,11,13,16,35,1.00
2007,11,13,16,36,0.60
2007,11,13,16,37,1.30
2007,11,13,16,38,0.90
2007,11,13,16,39,0.10
2007,11,13,16,40,0.00
2007,11,13,16,41,0.20
2007,11,13,16,42,0.00
2007,11,13,16,43,2.10
2007,11,13,16,44,0.80
2007,11,13,16,45,0.00
2007,11,13,16,46,0.00
2007,11,13,16,47,0.00
2007,11,13,16,48,3.30
2007,11,13,16,49,1.60
2007,11,13,16,50,0.30
2007,11,13,16,51,1.30
2007,11,13,16,52,1.90
2007,11,13,16,53,2.00
2007,11,13,16,54,0.80
2007,11,13,16,55,0.10
2007,11,13,16,56,0.00
2007,11,13,16,57,0.00
2007,11,13,16,58,1.80
2007,11,13,16,59,0.60
2007,11,13,17,00,0.20
2007,11,13,17,01,0.70
2007,11,13,17,02,1.40
2007,11,13,17,03,0.00
2007,11,13,17,04,0.00
2007,11,13,17,05,0.10
2007,11,13,17,06,0.00
2007,11,13,17,07,0.00
2007,11,13,17,08,0.00
2007,11,13,17,09,0.00
2007,11,13,17,10,0.30
2007,11,13,17,11,0.70
2007,11,13,17,12,0.00
2007,11,13,17,13,0.00
2007,11,13,17,14,0.00
2007,11,13,17,15,0.00
2007,11,13,17,16,1.50
2007,11,13,17,17,0.00
2007,11,13,17,18,0.00
2007,11,13,17,19,0.00
2007,11,13,17,20,0.00
2007,11,13,17,21,0.00
2007,11,13,17,22,0.40
2007,11,13,17,23,0.00
2007,11,13,17,24,0.50
2007,11,13,17,25,0.00
2007,11,13,17,26,0.00
2007,11,13,17,27,0.00
2007,11,13,17,28,0.00
2007,11,13,17,29,0.20
2007,11,13,17,30,0.40
2007,11,13,17,31,0.10
2007,11,13,17,32,0.00
2007,11,13,17,33,0.00
2007,11,13,17,34,0.00
2007,11,13,17,35,0.00
2007,11,13,17,36,0.00
2007,11,13,17,37,0.00
2007,11,13,17,38,0.00
2007,11,13,17,39,0.00
2007,11,13,17,40,0.00
2007,11,13,17,41,0.00
2007,11,13,17,42,0.40
2007,11,13,17,43,0.00
2007,11,13,17,44,0.00
2007,11,13,17,45,0.00
2007,11,13,17,46,0.00
2007,11,13,17,47,0.00
2007,11,13,17,48,0.00
2007,11,13,17,49,0.00
2007,11,13,17,50,0.00
2007,11,13,17,51,0.00
2007,11,13,17,52,0.00
2007,11,13,17,53,0.00
2007,11,13,17,54,0.00
2007,11,13,17,55,0.00
2007,11,13,17,56,0.00
2007,11,13,17,57,0.10
2007,11,13,17,58,0.00
2007,11,13,17,59,0.00
2007,11,13,18,00,0.00
2007,11,13,18,01,0.00
2007,11,13,18,02,0.00
2007,11,13,18,03,0.00
2007,11,13,18,04,0.00
2007,11,13,18,05,0.00